Rbgn^[z[y[W
メイン
   新天体発見情報
     Comet C/2020 W5 (Lemmon)
投稿するにはまず登録を

スレッド表示 | 新しいものから 前のトピック | 次のトピック | 下へ
投稿者 スレッド
佐藤裕久
投稿日時: 2021-1-25 18:28
モデレータ
登録日: 2005-6-12
居住地: 日本
投稿: 2661
オンライン
Comet C/2020 W5 (Lemmon)

2020年11月20日UT、Mt Lemmonサーベイの1.5-m 反射望遠鏡で得たCCD画像から小惑星状天体が
発見された。2021年1月8日、D. Tholen(T12)の報告では、2.24-m f/10.1反射望遠鏡でスタッ
クされた露出からおそらくp.a. 150°の核から5秒におそらく拡張したものを検出した。

彗星機能の報告は次の通り:

OC   Date        Reporter           Coma    Tail    PA          Exposures
L07  2020-11-26  E. Guido           7"                           76x60s
I52  2020-12-02  D. Rankin          7"
F65  2021-01-06  P. Breitenstein    8"       18"    140          12x100s

発見位置は次のとおり、

     2020 UT             R.A. (2000) Decl.       Mag.
     Nov. 20.22515    5 25 39.58   +53 22 03.6   21.6
          20.23038    5 25 38.83   +53 22 10.2   21.2
          20.23563    5 25 38.02   +53 22 17.1   21.0
          20.24088    5 25 37.22   +53 22 23.2   21.0

MPCの双曲線軌道要素、位置推算表は次のとおり、

Orbital elements:
    C/2020 W5 (Lemmon)                                                          
Epoch 2020 Dec. 17.0 TT = JDT 2459200.5                                         
T 2020 Nov. 30.11878 TT                                 Rudenko                 
q   3.3642411            (2000.0)            P               Q                  
z  -0.0003244      Peri.   24.48378     +0.21777189     -0.12539153             
 +/-0.0000669      Node    75.51324     +0.64597453     -0.72489803             
e   1.0010912      Incl.   88.58767     +0.73163674     +0.67734763             
From 55 observations 2020 Nov. 20-2021 Jan. 8, mean residual 0".5.              
                                                                                
Ephemeris:
Date    TT    R. A. (2000) Decl.     Delta      r    Elong.  Phase   m1
2020 12 16    04 06 20.3 +60 04 06   2.5526  3.3675   140.1    10.8
...
2020 12 31    03 17 23.4 +61 09 57   2.6753  3.3767   128.5    13.2
...
2021 01 08    02 55 52.4 +61 07 29   2.7668  3.3839   121.3    14.4
...
2021 01 14    02 42 32.9 +60 56 12   2.8445  3.3904   115.8    15.1
2021 01 15    02 40 34.1 +60 53 51   2.8580  3.3916   114.9    15.3
2021 01 16    02 38 39.5 +60 51 25   2.8717  3.3928   114.0    15.4
...
2021 01 22    02 28 35.2 +60 35 50   2.9567  3.4006   108.6    15.9
...
2021 01 30    02 18 38.1 +60 15 48   3.0757  3.4123   101.6    16.4
...
2021 02 14    02 08 56.3 +59 53 58   3.3057  3.4385    89.3    16.7

(MPEC 2021-A192、CBET 4913)

スレッド表示 | 新しいものから 前のトピック | 次のトピック | トップ

投稿するにはまず登録を
 
© 1999 Tsutomu Seki.